Location: Palomar Mountain Lodge
(33.3110°N, 116.8495°W)
Time: 22:16:22
(UTC-07:00)

Cosmos 1709 Rocket - Pass Details

Date: 12 July 2018
Orbit: 949 x 1001 km, 82.9° (Epoch: 20 September)

Event Time Altitude Azimuth Distance (km) Brightness Sun altitude
Rises 20:19:25 0° 359° (N) 3,629 7.4 -4.6°
Reaches altitude 10° 20:22:00 10° 5° (N) 2,677 6.7 -5.1°
Maximum altitude 20:27:57 53° 81° (E) 1,152 4.2 -6.2°
Drops below altitude 10° 20:33:51 10° 158° (SSE) 2,663 5.8 -7.2°
Sets 20:36:24 0° 163° (SSE) 3,608 6.5 -7.7°
Enters shadow 20:36:29 - 163° (SSE) 3,638 6.5 -7.7°
